DW2182 Weather Reports


Display with metric or nautical units.
time (UTC)temp
F
wind
direction
speed
MPH
gust
MPH
rain 1hr
in
rain 24hr
in
rain mn
in
humidity
%
barometer
mb
20260504043516 54 0.0 0.0 0.00 0.00 0.00 53 1002.8
20260504042516 54 0.0 0.0 0.00 0.00 0.00 56 1003.1
20260504041516 55 0.0 0.0 0.00 0.00 0.00 56 1003.2
20260504040516 55 0.0 0.0 0.00 0.00 0.00 57 1003.4
20260504035516 55 0.0 0.0 0.00 0.00 0.00 55 1003.3
20260504034516 56 0.0 0.0 0.00 0.00 0.00 54 1003.6
20260504033516 56 0.0 0.0 0.00 0.00 0.00 55 1003.7
20260504032516 57 0.0 0.0 0.00 0.00 0.00 54 1003.9
20260504031516 58 0.0 0.0 0.00 0.00 0.00 53 1004.1
20260504030536 58 0.0 0.0 0.00 0.00 0.00 51 1004.1
20260504025536 59 0.0 0.0 0.00 0.00 0.00 49 1004.2
20260504024516 60 0.0 0.0 0.00 0.00 0.00 47 1004.2
20260504023516 61 0.0 0.0 0.00 0.00 0.00 46 1004.2
20260504022516 62 0.0 0.0 0.00 0.00 0.00 44 1004.2
20260504021556 63 0.0 0.0 0.00 0.00 0.00 43 1004.4
20260504020516 64 0.0 1.0 0.00 0.00 0.00 41 1004.3
20260504015516 65 0.0 0.0 0.00 0.00 0.00 39 1004.3
20260504014516 66 0.0 0.0 0.00 0.00 0.00 37 1004.3
20260504013516 67 0.0 0.0 0.00 0.00 0.00 35 1004.3
20260504012516 68 0.0 0.0 0.00 0.00 0.00 33 1004.3
20260504011517 69 0.0 0.0 0.00 0.00 0.00 32 1004.2
20260504010516 70 0.0 0.0 0.00 0.00 0.00 30 1004.2
20260504005515 70 0.0 1.0 0.00 0.00 0.00 27 1004.3
20260504004536 70 135 1.0 3.0 0.00 0.00 0.00 27 1004.3
20260504003536 71 135 2.0 3.0 0.00 0.00 0.00 26 1004.5
20260504002515 71 158 2.0 7.0 0.00 0.00 0.00 26 1004.7
20260504001516 71 135 4.0 5.0 0.00 0.00 0.00 26 1004.8
20260504000516 71 135 5.0 9.0 0.00 0.00 0.00 26 1005.0
20260503235516 71 135 4.0 9.0 0.00 0.00 0.00 25 1005.0
20260503234616 71 135 4.0 11.0 0.00 0.00 0.00 25 1005.2
20260503233516 72 135 5.0 13.0 0.00 0.00 0.00 25 1005.2
20260503232516 72 135 5.0 9.0 0.00 0.00 0.00 26 1005.3
20260503231516 72 135 5.0 10.0 0.00 0.00 0.00 26 1005.4
20260503230516 72 135 5.0 11.0 0.00 0.00 0.00 26 1005.4
20260503225536 72 135 6.0 13.0 0.00 0.00 0.00 26 1005.3
20260503224516 72 135 6.0 12.0 0.00 0.00 0.00 26 1005.5
20260503223515 73 135 7.0 12.0 0.00 0.00 0.00 26 1005.7
20260503222515 73 135 6.0 11.0 0.00 0.00 0.00 26 1005.8
20260503221535 74 135 6.0 10.0 0.00 0.00 0.00 26 1005.7
20260503220536 74 135 6.0 14.0 0.00 0.00 0.00 26 1005.8
20260503215516 74 135 8.0 13.0 0.00 0.00 0.00 27 1006.0
20260503214516 74 135 7.0 12.0 0.00 0.00 0.00 27 1005.9
20260503213517 74 135 6.0 12.0 0.00 0.00 0.00 28 1006.1
20260503212558 75 135 5.0 9.0 0.00 0.00 0.00 26 1006.2
20260503211518 74 113 7.0 17.0 0.00 0.00 0.00 28 1006.2
20260503210517 75 158 6.0 13.0 0.00 0.00 0.00 27 1006.5
20260503205518 74 135 7.0 14.0 0.00 0.00 0.00 28 1006.5
20260503204518 74 135 5.0 10.0 0.00 0.00 0.00 27 1006.6
20260503203518 74 135 8.0 16.0 0.00 0.00 0.00 29 1007.0
20260503202518 74 135 9.0 17.0 0.00 0.00 0.00 27 1007.1
20260503201518 75 135 6.0 12.0 0.00 0.00 0.00 32 1007.2
20260503200538 74 135 6.0 13.0 0.00 0.00 0.00 29 1007.2
20260503195518 74 135 7.0 15.0 0.00 0.00 0.00 29 1007.4
20260503194518 74 135 7.0 12.0 0.00 0.00 0.00 28 1007.5
20260503193518 74 135 8.0 15.0 0.00 0.00 0.00 30 1007.7
20260503192518 73 135 8.0 13.0 0.00 0.00 0.00 30 1007.7
20260503191517 73 135 8.0 20.0 0.00 0.00 0.00 30 1007.8
20260503190516 72 135 9.0 15.0 0.00 0.00 0.00 31 1007.8
20260503185517 72 135 8.0 15.0 0.00 0.00 0.00 30 1007.9
20260503184537 72 135 8.0 12.0 0.00 0.00 0.00 30 1007.9
20260503183518 73 135 10.0 19.0 0.00 0.00 0.00 29 1008.1
20260503182518 73 158 8.0 19.0 0.00 0.00 0.00 29 1008.1
20260503181518 72 135 9.0 15.0 0.00 0.00 0.00 30 1008.2
20260503180518 72 158 10.0 19.0 0.00 0.00 0.00 30 1008.4
20260503175517 71 135 7.0 16.0 0.00 0.00 0.00 30 1008.5
20260503174517 71 158 10.0 19.0 0.00 0.00 0.00 31 1008.5
20260503173557 71 158 10.0 21.0 0.00 0.00 0.00 31 1008.4
20260503172517 71 158 9.0 16.0 0.00 0.00 0.00 31 1008.7
20260503171517 70 158 8.0 14.0 0.00 0.00 0.00 34 1008.5
20260503170638 70 158 9.0 18.0 0.00 0.00 0.00 34 1008.6
20260503150557 62 135 7.0 15.0 0.00 0.00 0.00 46 1008.1
20260503130517 54 135 6.0 11.0 0.00 0.00 0.00 59 1007.0
20260503110517 53 135 5.0 11.0 0.00 0.00 0.00 60 1005.4
20260503081517 57 90 8.0 12.0 0.00 0.00 0.00 44 1006.3
20260503080516 57 90 9.0 15.0 0.00 0.00 0.00 44 1006.3
20260503072516 58 90 7.0 14.0 0.00 0.00 0.00 43 1006.9
20260503071516 59 68 6.0 12.0 0.00 0.00 0.00 41 1007.0
20260503070516 59 90 7.0 17.0 0.00 0.00 0.00 40 1007.3
20260503054516 61 90 7.0 14.0 0.00 0.00 0.00 36 1009.5
20260503053516 61 90 8.0 11.0 0.00 0.00 0.00 35 1009.8
20260503052516 61 90 8.0 10.0 0.00 0.00 0.00 37 1009.6
20260503051516 61 90 7.0 10.0 0.00 0.00 0.00 39 1009.4
20260503050516 61 90 7.0 11.0 0.00 0.00 0.00 38 1009.6
20260503045537 62 90 8.0 13.0 0.00 0.00 0.00 37 1009.3
20260503044517 62 90 6.0 11.0 0.00 0.00 0.00 37 1009.2